Location: Chassagnes
(44.4047°N, 4.1657°E)
Time: 12:47:00
(UTC+00:00)

USA 306 - Pass Details

Date: 27 October 2020
Orbit: 569 x 577 km, 54.0° (Epoch: 22 November)

Event Time Altitude Azimuth Distance (km) Brightness Sun altitude
Rises 17:51:26 0° 305° (NW) 2,786 7.2 -13.4°
Reaches altitude 10° 17:53:51 10° 315° (NW) 1,885 6.1 -13.9°
Maximum altitude 17:57:49 35° 22° (NNE) 933 3.7 -14.6°
Enters shadow 17:59:35 25° 68° (ENE) 1,184 3.9 -14.9°
